Flag for Singapore Weather past 2 weeks in Singapore, Singapore

Now
90 °F

Partly sunny.


Feels Like: 103 °F
Forecast: 81 / 91 °F
Wind: 9 mph from South

Location: Singapore / Paya Lebar

Current Time: Jul 23, 2014 at 12:13:53 PM

Latest Report: Jul 23, 2014 at 11:00 AM


Visibility: N/A

Pressure: 29.86 "Hg

Humidity: 67%

Dew point: 77 °F

Location of SingaporeLocation

Historic Weather in Singapore — Graph

°F

Singapore temperature yesterday

Maximum temperature yesterday: 91 °F (at 2:00 PM)
Minimum temperature yesterday: 84 °F (at 5:00 AM)
Average temperature yesterday: 87 °F

Past Weeks' High & Low Weather Summary

 TemperatureHumidityPressure
High93 °F (Jul 14, 4:00 PM)100% (Jul 9, 9:00 AM)29.86 "Hg (Jul 9, 9:00 AM)
Low75 °F (Jul 9, 8:00 AM)52% (Jul 13, 12:00 PM)29.71 "Hg (Jul 8, 4:00 PM)
Average86 °F75%29.80 "Hg
* Reported Jul 8 11:00 AM — Jul 23 11:00 AM, Singapore, Weather by CustomWeather, © 2014

Note: Actual official high and low records may vary slightly from our data, if they occured in-between our weather recording intervals... More about our weather records

Advertising

Singapore weather history for previous 24 hours

 ConditionsComfort  
Time TempWeatherWind HumidityBarometerVisibility
11:00 AM
Jul 23
90 °FPartly sunny.9 mph67%29.86 "HgN/A
10:00 AM88 °FPartly sunny.8 mph70%29.86 "HgN/A
9:00 AM86 °FPartly sunny.8 mph79%29.86 "HgN/A
8:00 AM84 °FPartly sunny.5 mph79%29.83 "HgN/A
11:00 PM
Jul 22
84 °FPassing clouds.6 mph79%29.86 "HgN/A
10:00 PM84 °FPassing clouds.3 mph79%29.86 "HgN/A
9:00 PM86 °FPassing clouds.6 mph75%29.86 "HgN/A
8:00 PM86 °FPassing clouds.7 mph75%29.83 "HgN/A
7:00 PM86 °FPartly sunny.10 mph75%29.80 "HgN/A
6:00 PM88 °FPartly sunny.9 mph66%29.77 "HgN/A
5:00 PM90 °FScattered clouds.14 mph63%29.74 "HgN/A
4:00 PM90 °FBroken clouds.14 mph63%29.74 "HgN/A
3:00 PM90 °FPartly sunny.14 mph67%29.74 "HgN/A
2:00 PM91 °FBroken clouds.13 mph63%29.77 "HgN/A
1:00 PM90 °FPartly sunny.14 mph63%29.80 "HgN/A
12:00 PM90 °FPartly sunny.14 mph63%29.83 "HgN/A
Weather by CustomWeather, © 2014

See weather overviewHow to use our weather pages